User: anonymous   Login
Location: Campo Alegre
(10.4289°N, 66.6519°W)
Time: 18:40:27
(UTC+00:00)
Language:

Cosmos 192 - Orbit

View from above orbital plane
View from above orbital plane
View from above satellite
View from above satellite

Ground track
Ground track

The orbit data is extracted from the following two-line orbital elements,

1  3047U 67116A   24205.20852017  .00000802  00000-0  18630-3 0  9994
2  3047  74.0113 255.9054 0009207 239.5786 120.4468 14.56616387997995
Epoch (UTC): 23 July 2024 05:00:16
Eccentricity: 0.0009207
inclination: 74.0113°
perigee height: 697 km
apogee height: 710 km
right ascension of ascending node: 255.9054°
argument of perigee: 239.5786°
revolutions per day: 14.56616387
mean anomaly at epoch: 120.4468°
orbit number at epoch: 99799

The dashed part of the orbit path shows where the satellite is in the earth's shadow,  

DLR